Globalstar M029

operational
NORAD ID: 25963 Int'l Des: 1999-062 Owner: GLOBT Country: US Constellation: globalstar
LEOCIRCULAR

关于 Globalstar M029

正在加载描述...

实时位置

正在加载3D地球...

即将过境

高度历史

Altitude vs Time

uPlot chart will show altitude changes over time

两行轨道根数

1 25963U 99062C 26062.07533047 -.00000058 00000-0 35229-3 0 9994
2 25963 51.9792 114.6016 0002243 254.3949 117.7357 11.99908685200207
Epoch: Mar 3, 2026 • Age: 27 hours

当前状态

高度 1681.8 km
速度 7.04 km/s
星下点 19.17°N, 75.31°E
发射日期 Nov 22, 1999
运行时间 26.2 years
类型 communications

技术详情

分类 Payload
质量 450.00 kg
干质量 380.00 kg
总质量 450.00 kg
长度 1.50 m
直径 0.60 m
跨度 12.00 m
形状 Box + 2 Pan
制造商 LOR
平台类型 LS-400
阶段状态 In Orbit
所有者/国家 GLOBT/US

大型星座

Loading constellations...